FW5313 Weather Reports


Display with metric or nautical units.
time (UTC)temp
F
wind
direction
speed
MPH
gust
MPH
rain 1hr
in
rain 24hr
in
rain mn
in
humidity
%
barometer
mb
20260903224044 66 0 0.0 1.0 0.00 0.21 0.21 95 1011.3
20260903223545 66 0 0.0 1.0 0.00 0.21 0.21 95 1011.3
20260903223053 66 0 0.0 1.0 0.00 0.21 0.21 95 1011.5
20260903222551 66 0 0.0 1.0 0.00 0.21 0.21 96 1011.4
20260903222045 66 0 0.0 1.0 0.00 0.21 0.21 95 1011.3
20260903221559 66 0 0.0 1.0 0.00 0.21 0.21 96 1011.3
20260903221044 65 354 0.0 1.0 0.00 0.21 0.21 96 1011.5
20260903220545 65 0 0.0 1.0 0.00 0.21 0.21 95 1011.5
20260903220112 65 0 0.0 1.0 0.00 0.21 0.21 95 1011.6
20260903215545 65 356 0.0 1.0 0.00 0.21 0.21 95 1011.6
20260903215046 65 0 0.0 1.0 0.00 0.21 0.21 95 1011.7
20260903214602 65 0 0.0 1.0 0.00 0.21 0.21 95 1011.5
20260903214045 65 0 0.0 1.0 0.00 0.21 0.21 94 1011.5
20260903213545 66 0 0.0 1.0 0.00 0.21 0.21 94 1011.5
20260903213057 66 0 0.0 1.0 0.00 0.21 0.21 94 1011.6
20260903212545 66 0 0.0 1.0 0.00 0.21 0.21 94 1011.7
20260903212045 66 0 0.0 1.0 0.00 0.21 0.21 94 1011.6
20260903211559 67 0 0.0 1.0 0.00 0.21 0.21 95 1011.7
20260903211044 67 0 0.0 1.0 0.00 0.21 0.21 95 1011.6
20260903210544 67 340 0.0 0.0 0.00 0.21 0.21 95 1011.7
20260903210055 67 0 0.0 1.0 0.00 0.21 0.21 94 1011.7
20260903205544 67 0 0.0 1.0 0.00 0.21 0.21 94 1011.6
20260903205045 67 0 0.0 0.0 0.00 0.21 0.21 94 1011.5
20260903204552 67 0 0.0 1.0 0.00 0.21 0.21 94 1011.5
20260903204044 67 0 0.0 1.0 0.00 0.21 0.21 94 1011.5
20260903203548 68 0 0.0 2.0 0.00 0.21 0.21 93 1011.4
20260903203057 68 0 0.0 2.0 0.00 0.21 0.21 93 1011.5
20260903202544 68 0 0.0 1.0 0.00 0.21 0.21 92 1011.5
20260903202045 69 0 0.0 1.0 0.00 0.21 0.21 92 1011.5
20260903201601 69 0 0.0 1.0 0.00 0.21 0.21 91 1011.5
20260903201044 70 0 0.0 0.0 0.00 0.21 0.21 90 1011.6
20260903200546 71 0 0.0 0.0 0.00 0.21 0.21 90 1011.6
20260903200055 72 0 0.0 0.0 0.00 0.21 0.21 89 1011.6
20260903195545 73 0 0.0 0.0 0.00 0.21 0.21 87 1011.6
20260903195045 74 0 0.0 0.0 0.00 0.21 0.21 86 1011.5
20260903194559 75 0 0.0 0.0 0.00 0.21 0.21 86 1011.6
20260903194044 75 0 0.0 1.0 0.00 0.21 0.21 85 1011.6
20260903193547 75 0 0.0 1.0 0.00 0.21 0.21 86 1011.7
20260903193057 75 0 0.0 1.0 0.00 0.21 0.21 87 1011.6
20260903192545 74 0 0.0 1.0 0.00 0.21 0.21 90 1011.7
20260903192047 74 0 0.0 1.0 0.00 0.21 0.21 87 1011.8
20260903191558 74 0 0.0 1.0 0.00 0.21 0.21 87 1011.7
20260903191044 74 0 0.0 3.0 0.00 0.21 0.21 89 1011.7
20260903190545 73 321 0.0 3.0 0.00 0.21 0.21 90 1011.9
20260903185545 71 0 0.0 0.0 0.00 0.21 0.21 89 1011.8
20260903185045 70 320 0.0 0.0 0.00 0.21 0.21 91 1011.8
20260903184602 70 320 0.0 0.0 0.00 0.21 0.21 91 1011.9
20260903184045 70 0 0.0 0.0 0.00 0.21 0.21 91 1011.9
20260903183544 70 0 0.0 1.0 0.00 0.21 0.21 90 1012.0
20260903183101 70 0 0.0 1.0 0.00 0.21 0.21 89 1012.0
20260903182545 70 0 0.0 1.0 0.00 0.21 0.21 90 1012.0
20260903182044 70 321 0.0 1.0 0.00 0.21 0.21 91 1012.1
20260903181558 70 320 0.0 1.0 0.00 0.21 0.21 88 1012.2
20260903181047 70 0 0.0 0.0 0.00 0.21 0.21 91 1012.2
20260903180544 70 0 0.0 0.0 0.00 0.21 0.21 90 1012.1
20260903180105 69 0 0.0 1.0 0.00 0.21 0.21 91 1012.2
20260903175544 69 323 0.0 1.0 0.00 0.21 0.21 89 1012.3
20260903175045 69 0 0.0 1.0 0.00 0.21 0.21 93 1012.3
20260903174558 68 0 0.0 2.0 0.00 0.21 0.21 93 1012.4
20260903174045 67 324 0.0 2.0 0.00 0.21 0.21 92 1012.4
20260903173544 67 314 0.0 2.0 0.00 0.21 0.21 93 1012.4
20260903173059 67 0 0.0 2.0 0.00 0.21 0.21 92 1012.4
20260903172545 67 314 0.0 1.0 0.00 0.21 0.21 91 1012.4
20260903172045 67 0 0.0 1.0 0.00 0.21 0.21 95 1012.6
20260903171607 66 311 0.0 2.0 0.00 0.21 0.21 92 1012.7
20260903171045 66 0 0.0 2.0 0.00 0.21 0.21 94 1012.7
20260903170545 65 307 0.0 2.0 0.00 0.21 0.21 92 1012.6
20260903170109 65 309 1.0 2.0 0.00 0.21 0.21 92 1012.7
20260903165545 65 309 0.0 2.0 0.00 0.21 0.21 95 1012.7
20260903165048 65 325 0.0 4.0 0.00 0.21 0.21 95 1012.7
20260903164604 64 320 0.0 4.0 0.00 0.21 0.21 96 1012.7
20260903164046 64 320 0.0 4.0 0.00 0.21 0.21 95 1012.7
20260903163544 63 328 0.0 3.0 0.00 0.21 0.21 95 1012.8
20260903163109 63 329 0.0 3.0 0.00 0.21 0.21 95 1012.9
20260903162544 63 0 0.0 1.0 0.00 0.21 0.21 96 1013.0
20260903162045 63 0 0.0 1.0 0.00 0.21 0.21 96 1013.0
20260903161605 63 0 0.0 1.0 0.00 0.21 0.21 96 1013.0
20260903161045 62 0 0.0 1.0 0.00 0.21 0.21 96 1013.0
20260903160548 62 343 0.0 1.0 0.00 0.21 0.21 96 1013.1
20260903160104 62 0 0.0 1.0 0.00 0.21 0.21 97 1013.3
20260903155545 62 348 0.0 1.0 0.00 0.21 0.21 97 1013.3
20260903155044 61 0 0.0 1.0 0.00 0.21 0.21 97 1013.3
20260903154608 61 0 0.0 1.0 0.00 0.21 0.21 97 1013.5
20260903154045 61 0 0.0 1.0 0.00 0.21 0.21 97 1013.6
20260903153544 61 0 0.0 3.0 0.00 0.21 0.21 97 1013.4
20260903153110 60 360 0.0 3.0 0.00 0.21 0.21 97 1013.5
20260903152548 61 246 0.0 2.0 0.00 0.21 0.21 97 1013.6
20260903152044 60 245 0.0 2.0 0.00 0.21 0.21 97 1013.6
20260903151603 60 269 0.0 2.0 0.00 0.21 0.21 97 1013.8
20260903151047 60 0 0.0 1.0 0.00 0.21 0.21 97 1013.8
20260903150545 60 0 0.0 2.0 0.00 0.21 0.21 97 1013.9
20260903150119 60 0 0.0 2.0 0.00 0.21 0.21 97 1014.0
20260903145545 60 248 0.0 2.0 0.00 0.21 0.21 98 1014.0
20260903145045 60 0 0.0 1.0 0.00 0.21 0.21 98 1013.8
20260903144602 60 0 0.0 1.0 0.00 0.21 0.21 98 1014.0
20260903144045 59 0 0.0 2.0 0.00 0.21 0.21 98 1014.1
20260903143544 59 0 0.0 2.0 0.00 0.21 0.21 98 1014.3
20260903143101 59 244 0.0 1.0 0.00 0.21 0.21 98 1014.3
20260903142545 59 236 0.0 1.0 0.00 0.21 0.21 98 1014.2
20260903142045 59 0 0.0 1.0 0.00 0.21 0.21 98 1014.0
20260903141605 58 0 0.0 1.0 0.00 0.21 0.21 98 1014.1
20260903141045 58 0 0.0 1.0 0.00 0.21 0.21 98 1014.3
20260903140544 59 0 0.0 0.0 0.00 0.21 0.21 98 1014.3
20260903140107 58 0 0.0 0.0 0.00 0.21 0.21 98 1014.3
20260903135546 58 0 0.0 0.0 0.00 0.21 0.21 98 1014.3
20260903135048 58 0 0.0 0.0 0.00 0.21 0.21 98 1014.3
20260903134600 58 0 0.0 1.0 0.00 0.21 0.21 98 1014.2
20260903134049 58 0 0.0 1.0 0.00 0.21 0.21 98 1014.2
20260903133545 58 0 0.0 1.0 0.00 0.21 0.21 98 1014.1
20260903133107 58 0 0.0 1.0 0.00 0.21 0.21 98 1014.1
20260903132544 58 0 0.0 0.0 0.00 0.21 0.21 98 1014.1
20260903132044 58 0 0.0 0.0 0.00 0.21 0.21 98 1014.0
20260903131559 58 0 0.0 0.0 0.00 0.21 0.21 98 1014.2
20260903131046 58 0 0.0 1.0 0.00 0.21 0.21 98 1014.1
20260903130547 58 0 0.0 1.0 0.00 0.21 0.21 98 1014.1
20260903130059 58 0 0.0 1.0 0.00 0.21 0.21 98 1014.1
20260903125545 58 0 0.0 1.0 0.00 0.21 0.21 98 1014.1
20260903125045 58 288 0.0 0.0 0.00 0.21 0.21 98 1014.1
20260903124606 58 0 0.0 0.0 0.00 0.21 0.21 98 1014.0
20260903124045 58 0 0.0 1.0 0.01 0.21 0.21 98 1014.1
20260903123546 58 0 0.0 1.0 0.01 0.21 0.21 98 1014.2
20260903123058 57 0 0.0 2.0 0.01 0.21 0.21 98 1014.1
20260903122547 58 0 0.0 2.0 0.01 0.21 0.21 98 1014.2
20260903122046 58 0 0.0 1.0 0.01 0.21 0.21 98 1014.2
20260903121555 57 0 0.0 1.0 0.01 0.21 0.21 98 1014.2
20260903121045 57 0 0.0 0.0 0.01 0.21 0.21 98 1014.2
20260903120548 57 0 0.0 1.0 0.01 0.21 0.21 98 1014.2
20260903120055 57 0 0.0 1.0 0.01 0.21 0.21 98 1014.2
20260903115545 57 0 0.0 0.0 0.01 0.21 0.21 98 1014.2
20260903115046 57 0 0.0 0.0 0.01 0.21 0.21 98 1014.1
20260903114617 57 0 0.0 0.0 0.01 0.21 0.21 98 1014.2
20260903114042 57 0 0.0 0.0 0.00 0.20 0.20 98 1014.3
20260903113546 57 0 0.0 0.0 0.00 0.20 0.20 98 1014.2
20260903113100 57 0 0.0 1.0 0.00 0.20 0.20 98 1014.2
20260903112545 57 0 0.0 1.0 0.00 0.20 0.20 98 1014.2
20260903112043 57 0 0.0 1.0 0.00 0.20 0.20 98 1014.0
20260903111614 57 0 0.0 1.0 0.00 0.20 0.20 98 1014.1
20260903111045 57 0 0.0 1.0 0.00 0.20 0.20 98 1014.1
20260903110545 57 0 0.0 1.0 0.00 0.20 0.20 98 1014.2
20260903110059 57 0 0.0 1.0 0.00 0.20 0.20 98 1014.1
20260903105548 57 0 0.0 0.0 0.00 0.20 0.20 98 1014.1
20260903105044 57 0 0.0 1.0 0.00 0.20 0.20 98 1014.1
20260903104605 57 0 0.0 1.0 0.00 0.20 0.20 98 1014.1
20260903104042 57 0 0.0 3.0 0.00 0.20 0.20 98 1014.1
20260903103545 57 0 0.0 3.0 0.00 0.20 0.20 98 1014.1
20260903103110 57 0 0.0 3.0 0.00 0.20 0.20 98 1014.1
20260903102545 57 310 0.0 1.0 0.00 0.20 0.20 98 1014.0
20260903102046 57 0 0.0 1.0 0.00 0.20 0.20 98 1014.0
20260903101600 57 307 0.0 2.0 0.00 0.20 0.20 98 1014.0
20260903101044 57 0 0.0 2.0 0.00 0.20 0.20 98 1013.8
20260903100546 57 0 0.0 1.0 0.00 0.20 0.20 98 1013.8
20260903095542 56 295 0.0 2.0 0.00 0.20 0.20 98 1013.8
20260903095046 57 0 0.0 2.0 0.00 0.20 0.20 98 1013.8
20260903094603 57 163 0.0 2.0 0.00 0.20 0.20 98 1013.7
20260903094045 56 0 0.0 1.0 0.00 0.20 0.20 98 1013.7
20260903093545 56 0 0.0 3.0 0.00 0.20 0.20 97 1013.8
20260903093125 56 349 0.0 3.0 0.00 0.20 0.20 97 1013.7
20260903092545 56 0 0.0 2.0 0.00 0.20 0.20 97 1013.8
20260903092042 57 0 0.0 2.0 0.00 0.20 0.20 97 1013.8
20260903091559 56 0 0.0 1.0 0.00 0.20 0.20 97 1013.9
20260903091046 57 324 0.0 1.0 0.00 0.20 0.20 97 1014.0
20260903090544 57 324 0.0 1.0 0.00 0.20 0.20 97 1014.0
20260903090055 57 0 0.0 1.0 0.01 0.20 0.20 97 1014.1
20260903085542 57 324 0.0 1.0 0.01 0.20 0.20 97 1014.0
20260903085043 57 324 0.0 1.0 0.02 0.20 0.20 97 1013.9
20260903084600 57 0 0.0 0.0 0.02 0.20 0.20 97 1014.0
20260903084045 57 0 0.0 1.0 0.02 0.20 0.20 97 1014.0
20260903083543 57 0 0.0 1.0 0.03 0.20 0.20 97 1014.0
20260903083101 57 325 0.0 1.0 0.03 0.20 0.20 97 1014.0
20260903082545 57 324 0.0 1.0 0.03 0.20 0.20 97 1014.1
20260903082045 57 0 0.0 1.0 0.03 0.20 0.20 97 1014.3
20260903081556 56 304 0.0 2.0 0.04 0.20 0.20 97 1014.4
20260903081044 56 0 0.0 2.0 0.04 0.20 0.20 97 1014.4
20260903080545 56 330 0.0 2.0 0.04 0.20 0.20 97 1014.2
20260903080058 56 297 0.0 2.0 0.03 0.19 0.19 97 1014.2
20260903075548 57 290 0.0 2.0 0.03 0.19 0.19 97 1014.3
20260903075048 57 305 0.0 2.0 0.02 0.18 0.18 97 1014.2
20260903074557 57 335 0.0 1.0 0.02 0.18 0.18 97 1014.3
20260903074046 57 338 0.0 1.0 0.02 0.18 0.18 97 1014.3
20260903073545 57 0 0.0 3.0 0.01 0.17 0.17 97 1014.3
20260903073056 57 307 1.0 3.0 0.01 0.17 0.17 97 1014.5
20260903072545 57 327 0.0 2.0 0.01 0.17 0.17 97 1014.4
20260903072045 57 327 0.0 2.0 0.01 0.17 0.17 97 1014.3
20260903071632 57 359 0.0 2.0 0.00 0.16 0.16 97 1014.5
20260903071045 56 328 0.0 2.0 0.00 0.16 0.16 97 1014.7
20260903070548 57 328 0.0 3.0 0.00 0.16 0.16 97 1014.6
20260903070103 57 0 1.0 3.0 0.00 0.16 0.16 97 1014.7
20260903065547 57 0 0.0 2.0 0.00 0.16 0.16 97 1014.6
20260903065042 57 0 0.0 2.0 0.00 0.16 0.16 97 1014.8
20260903064604 57 324 0.0 2.0 0.00 0.16 0.16 97 1015.0
20260903064044 57 0 0.0 2.0 0.01 0.16 0.16 97 1015.0
20260903063546 57 324 0.0 2.0 0.03 0.16 0.16 97 1015.1
20260903063106 57 324 0.0 2.0 0.09 0.16 0.16 97 1015.2
20260903062545 57 324 0.0 2.0 0.10 0.16 0.16 97 1015.1
20260903062045 57 341 1.0 2.0 0.13 0.16 0.16 97 1015.0
20260903061608 57 338 0.0 2.0 0.13 0.16 0.16 96 1015.0
20260903061044 57 340 1.0 5.0 0.13 0.16 0.16 96 1015.1
20260903060545 57 355 1.0 5.0 0.15 0.16 0.16 96 1015.1
20260903055542 57 289 1.0 3.0 0.16 0.17 0.16 96 1015.4
20260903055047 57 313 1.0 3.0 0.16 0.17 0.16 96 1015.4
20260903054605 57 312 1.0 3.0 0.16 0.17 0.16 96 1015.4
20260903054045 57 334 0.0 3.0 0.15 0.16 0.15 96 1015.5
20260903053548 57 327 0.0 2.0 0.13 0.14 0.13 96 1015.7
20260903053057 57 327 1.0 2.0 0.07 0.08 0.07 95 1015.6
20260903052545 58 327 1.0 4.0 0.06 0.07 0.06 95 1015.6
20260903052045 58 324 0.0 4.0 0.03 0.04 0.03 95 1015.6
20260903051602 58 325 0.0 4.0 0.03 0.04 0.03 94 1015.7
20260903051045 59 327 0.0 1.0 0.03 0.04 0.03 94 1015.6
20260903050544 59 326 0.0 3.0 0.01 0.02 0.01 93 1015.6
20260903050115 59 0 1.0 3.0 0.00 0.01 0.00 92 1015.9
20260903045545 59 306 1.0 2.0 0.00 0.05 0.00 92 1015.9
20260903045044 59 309 0.0 2.0 0.00 0.05 0.00 92 1015.8
20260903044604 59 308 1.0 2.0 0.00 0.05 0.00 92 1015.9
20260903044043 59 279 1.0 2.0 0.00 0.05 0.00 92 1015.9
20260903043545 59 260 0.0 3.0 0.00 0.05 0.00 92 1015.9
20260903043058 59 259 1.0 3.0 0.00 0.05 0.00 92 1015.8
20260903042547 59 307 0.0 3.0 0.00 0.05 0.00 92 1015.8
20260903042049 59 326 1.0 2.0 0.00 0.05 0.00 92 1015.9
20260903041611 59 338 1.0 4.0 0.00 0.05 0.00 92 1015.9
20260903041045 59 257 1.0 4.0 0.00 0.05 0.00 92 1015.9
20260903040546 59 312 1.0 4.0 0.00 0.05 0.00 92 1015.7
20260903040100 59 312 1.0 3.0 0.00 0.05 0.00 92 1015.8
20260903035544 59 323 1.0 4.0 0.00 0.05 0.05 93 1016.0
20260903035045 59 323 1.0 6.0 0.00 0.05 0.05 93 1015.9
20260903034608 59 321 1.0 6.0 0.00 0.05 0.05 93 1015.9
20260903034045 59 359 1.0 7.0 0.00 0.05 0.05 93 1015.8
20260903033544 59 311 2.0 7.0 0.00 0.05 0.05 93 1015.8
20260903033059 59 319 1.0 4.0 0.00 0.05 0.05 94 1015.7
20260903032544 59 328 1.0 4.0 0.00 0.05 0.05 94 1015.8
20260903032046 59 318 1.0 4.0 0.00 0.05 0.05 95 1015.8
20260903031605 59 330 1.0 4.0 0.00 0.05 0.05 95 1015.8
20260903031049 59 335 1.0 4.0 0.00 0.05 0.05 95 1016.1
20260903030549 59 320 1.0 5.0 0.00 0.05 0.05 95 1016.0
20260903030058 59 316 1.0 5.0 0.00 0.05 0.05 95 1016.5
20260903025541 59 327 2.0 5.0 0.00 0.05 0.05 95 1016.5
20260903025044 59 360 0.0 4.0 0.00 0.05 0.05 95 1016.8
20260903024555 59 14 1.0 4.0 0.00 0.05 0.05 95 1016.8
20260903024045 59 349 1.0 5.0 0.00 0.05 0.05 95 1016.8
20260903023545 59 328 1.0 5.0 0.00 0.05 0.05 94 1016.9
20260903023102 59 355 1.0 4.0 0.00 0.05 0.05 94 1016.8
20260903022547 59 56 1.0 5.0 0.00 0.05 0.05 94 1016.8
20260903022048 59 358 1.0 5.0 0.00 0.05 0.05 94 1017.0
20260903021558 60 30 1.0 3.0 0.00 0.05 0.05 94 1016.9
20260903021047 60 347 1.0 3.0 0.00 0.05 0.05 94 1017.0
20260903020544 60 342 1.0 3.0 0.00 0.05 0.05 94 1016.8
20260903020105 60 33 1.0 4.0 0.00 0.05 0.05 93 1016.9
20260903015546 60 1 1.0 4.0 0.00 0.05 0.05 93 1017.2
20260903015044 60 334 1.0 6.0 0.00 0.05 0.05 92 1017.4
20260903014625 60 336 1.0 6.0 0.00 0.05 0.05 92 1017.4
20260903014048 60 298 1.0 4.0 0.00 0.05 0.05 93 1017.6
20260903013545 60 30 1.0 4.0 0.00 0.05 0.05 92 1017.6
20260903013106 61 2 1.0 4.0 0.00 0.05 0.05 92 1017.6
20260903012545 61 339 1.0 4.0 0.00 0.05 0.05 92 1017.5
20260903012045 61 337 1.0 3.0 0.00 0.05 0.05 93 1017.6
20260903011602 61 360 0.0 3.0 0.00 0.05 0.05 93 1017.5
20260903011047 61 356 1.0 3.0 0.00 0.05 0.05 93 1017.4
20260903010544 61 0 1.0 5.0 0.00 0.05 0.05 93 1017.4
20260903005548 61 269 2.0 6.0 0.00 0.05 0.05 93 1017.4
20260903005044 61 0 1.0 4.0 0.00 0.05 0.05 93 1017.5
20260903004603 61 31 0.0 4.0 0.00 0.05 0.05 93 1017.4
20260903004045 61 338 0.0 4.0 0.00 0.05 0.05 93 1017.4
20260903003545 61 346 1.0 5.0 0.00 0.05 0.05 93 1017.4
20260903003109 61 322 1.0 5.0 0.00 0.05 0.05 93 1017.4
20260903002544 61 349 1.0 4.0 0.00 0.05 0.05 93 1017.1
20260903002045 61 360 1.0 5.0 0.00 0.05 0.05 93 1016.9
20260903001600 61 341 1.0 5.0 0.00 0.05 0.05 93 1017.0
20260903001044 61 322 0.0 4.0 0.00 0.05 0.05 93 1017.1
20260903000545 61 307 1.0 3.0 0.00 0.05 0.05 93 1017.3
20260903000111 61 348 1.0 4.0 0.00 0.05 0.05 93 1017.2
20260902235545 61 1 1.0 4.0 0.00 0.05 0.05 93 1017.1
20260902235044 61 13 0.0 3.0 0.00 0.05 0.05 93 1017.3
20260902234605 61 293 0.0 4.0 0.00 0.05 0.05 92 1017.1
20260902234047 61 349 1.0 4.0 0.00 0.05 0.05 92 1017.2
20260902233543 61 281 0.0 4.0 0.00 0.05 0.05 92 1017.1
20260902233102 61 309 1.0 4.0 0.00 0.05 0.05 92 1017.1
20260902232544 61 311 1.0 3.0 0.00 0.05 0.05 92 1017.1
20260902232044 61 337 1.0 4.0 0.00 0.05 0.05 92 1017.1
20260902231606 61 297 1.0 5.0 0.00 0.05 0.05 91 1017.4
20260902231045 61 290 1.0 6.0 0.00 0.05 0.05 91 1017.4
20260902230544 61 324 0.0 6.0 0.00 0.05 0.05 91 1017.7
20260902230118 61 0 1.0 6.0 0.00 0.05 0.05 91 1017.7
20260902225546 61 323 1.0 4.0 0.00 0.05 0.05 91 1017.7
20260902225041 61 21 1.0 4.0 0.00 0.05 0.05 91 1017.4
20260902224615 61 17 1.0 6.0 0.00 0.05 0.05 91 1017.9